TIANWANG 1A (TW-1A)
1 40928U 15051D   19311.69436781  .00002335  00000-0  57644-4 0  9997
2 40928  97.1338 339.8172 0008996 279.8174 176.2489 15.41478950231040
LAPAN A2
1 40931U 15052B   19308.14990593  .00000506  00000-0 -18695-4 0  9996
2 40931   5.9899 149.2330 0013523 313.9745  46.0045 14.76617760221769
LQSAT
1 40958U 15057A   19311.39283100 +.00000014 +00000-0 +97682-5 0  9997
2 40958 097.8843 016.6506 0019058 143.2925 216.9592 14.73095141219674
CHUBUSAT 2
1 41338U 16012B   19311.41527536 +.00000321 +00000-0 +18244-4 0  9996
2 41338 031.0039 324.0695 0013753 066.9859 293.2226 15.00205023204211
CHUBUSAT 3
1 41339U 16012C   19311.43487388  .00000302  00000-0  16698-4 0  9999
2 41339  31.0116 321.8550 0013502  73.9280 286.2842 15.00376473204215
OUFTI-1
1 41458U 16025C   19311.24728555 +.00001235 +00000-0 +66749-4 0  9996
2 41458 098.1003 045.2957 0164323 240.7760 117.6947 15.06151901193874
E-STAR-2
1 41459U 16025D   19311.69706653  .00000483  00000-0  29214-4 0  9991
2 41459  98.0972  45.3437 0165504 240.7711 117.6876 15.05760921193914
AAUSAT 4
1 41460U 16025E   19311.68968863  .00001818  00000-0  94357-4 0  9998
2 41460  98.0944  46.9508 0155620 232.0595 126.6516 15.07780468194061
NUSAT 1
1 41557U 16033B   19311.62324356  .00001193  00000-0  46983-4 0  9999
2 41557  97.4141  38.2877 0014541 150.6861 209.5197 15.27509063191751
BEESAT 4
1 41619U 16040W   19311.40729106 +.00001295 +00000-0 +57255-4 0  9991
2 41619 097.3518 010.8863 0009794 240.8519 119.1738 15.23438198175434
PRATHAM
1 41783U 16059A   19311.58373015  .00000042  00000-0  17363-4 0  9991
2 41783  98.0508   7.9052 0032339 298.7786  61.0169 14.63018703166295
ALSAT 1N
1 41789U 16059G   19311.72451645  .00000073  00000-0  22954-4 0  9995
2 41789  98.0530  10.3505 0026905 286.9513  72.8735 14.64273763166431
NAYIF 1
1 42017U 17008BX  19311.62776698 +.00001368 +00000-0 +56229-4 0  9992
2 42017 097.3888 017.1678 0007165 041.4807 318.6974 15.25869565151560
MAX VALIER SAT
1 42778U 17036P   19311.59396502 +.00000855 +00000-0 +40086-4 0  9999
2 42778 097.3380 006.0165 0014029 087.3367 272.9475 15.22232861131821
